• In Lithuania
  • List of Countries
  • For 7 days
  • Water Temperature
  • Satellite Maps
  • Weather Map
  • Weather Widgets
  • user-avatar
    Login

    Hourly Weather Pakchongo

    Today, 19 February, Monday

    Time Temperature Precipitation Wind Pressure Humidity
    00:00 +29°C° 0 mm 1 mps 727 mmHg 55%
    01:00 +28°C° 0 mm 1 mps 727 mmHg 64%
    02:00 +28°C° 0.1 mm 1 mps 727 mmHg 66%
    03:00 +27°C° 0.1 mm 1 mps 727 mmHg 69%
    04:00 +27°C° 0.1 mm 1 mps 726 mmHg 71%
    05:00 +27°C° 0 mm 1 mps 727 mmHg 73%
    06:00 +27°C° 0 mm 1 mps 727 mmHg 74%
    07:00 +25°C° 0 mm 0 mps 728 mmHg 72%
    08:00 +29°C° 0 mm 1 mps 728 mmHg 64%
    09:00 +31°C° 0 mm 1 mps 728 mmHg 57%
    10:00 +32°C° 0 mm 1 mps 728 mmHg 49%
    11:00 +33°C° 0 mm 1 mps 728 mmHg 47%
    12:00 +33°C° 0 mm 1 mps 728 mmHg 45%
    13:00 +34°C° 0 mm 1 mps 727 mmHg 43%
    14:00 +34°C° 0 mm 1 mps 727 mmHg 44%
    15:00 +33°C° 0 mm 1 mps 726 mmHg 44%
    16:00 +33°C° 0 mm 1 mps 726 mmHg 44%
    17:00 +32°C° 0.5 mm 1 mps 726 mmHg 48%
    18:00 +31°C° 0.5 mm 1 mps 726 mmHg 52%
    19:00 +31°C° 0.5 mm 1 mps 727 mmHg 55%
    20:00 +30°C° 0.9 mm 1 mps 727 mmHg 60%
    21:00 +29°C° 0.9 mm 1 mps 727 mmHg 64%
    22:00 +28°C° 0.9 mm 2 mps 728 mmHg 68%
    23:00 +28°C° 0.9 mm 1 mps 727 mmHg 70%

    Tomorrow, 20 February, Tuesday

    Time Temperature Precipitation Wind Pressure Humidity
    00:00 +27°C° 0.9 mm 1 mps 727 mmHg 73%
    01:00 +27°C° 0.9 mm 1 mps 727 mmHg 75%
    02:00 +27°C° 0.4 mm 1 mps 727 mmHg 76%
    03:00 +27°C° 0.4 mm 1 mps 727 mmHg 76%
    04:00 +26°C° 0.4 mm 1 mps 726 mmHg 77%
    05:00 +26°C° 0.1 mm 1 mps 727 mmHg 78%
    06:00 +26°C° 0.1 mm 1 mps 727 mmHg 80%
    07:00 +26°C° 0.1 mm 1 mps 727 mmHg 81%
    08:00 +28°C° 0.1 mm 1 mps 727 mmHg 73%
    09:00 +30°C° 0.1 mm 2 mps 728 mmHg 65%
    10:00 +31°C° 0.1 mm 2 mps 728 mmHg 58%
    11:00 +32°C° 0.6 mm 2 mps 728 mmHg 54%
    12:00 +33°C° 0.6 mm 1 mps 727 mmHg 51%
    13:00 +34°C° 0.6 mm 1 mps 727 mmHg 48%
    14:00 +34°C° 0.9 mm 1 mps 726 mmHg 48%
    15:00 +34°C° 0.9 mm 1 mps 725 mmHg 49%
    16:00 +33°C° 0.9 mm 1 mps 725 mmHg 50%
    17:00 +32°C° 0.5 mm 1 mps 725 mmHg 53%
    18:00 +31°C° 0.5 mm 1 mps 725 mmHg 56%
    19:00 +31°C° 0.5 mm 2 mps 725 mmHg 58%
    20:00 +30°C° 1.1 mm 2 mps 726 mmHg 62%
    21:00 +29°C° 1.1 mm 2 mps 726 mmHg 66%
    22:00 +28°C° 1.1 mm 2 mps 727 mmHg 71%
    23:00 +28°C° 0.9 mm 2 mps 726 mmHg 73%

    Day after tomorrow, 21 February, Wednesday

    Time Temperature Precipitation Wind Pressure Humidity
    00:00 +27°C° 0.9 mm 2 mps 726 mmHg 75%
    01:00 +27°C° 0.9 mm 2 mps 726 mmHg 78%
    02:00 +27°C° 1.1 mm 2 mps 726 mmHg 79%
    03:00 +26°C° 1.1 mm 2 mps 725 mmHg 81%
    04:00 +26°C° 1.1 mm 2 mps 725 mmHg 82%
    05:00 +26°C° 0.5 mm 2 mps 725 mmHg 83%
    06:00 +26°C° 0.5 mm 2 mps 726 mmHg 84%
    07:00 +26°C° 0.5 mm 2 mps 726 mmHg 85%
    08:00 +28°C° 0.2 mm 2 mps 727 mmHg 76%
    09:00 +29°C° 0.2 mm 2 mps 727 mmHg 67%
    10:00 +31°C° 0.2 mm 3 mps 728 mmHg 58%
    11:00 +33°C° 0.5 mm 3 mps 727 mmHg 54%
    12:00 +35°C° 0.5 mm 2 mps 726 mmHg 49%
    13:00 +36°C° 0.5 mm 2 mps 726 mmHg 45%
    14:00 +35°C° 0.3 mm 2 mps 725 mmHg 45%
    15:00 +35°C° 0.3 mm 2 mps 724 mmHg 45%
    16:00 +35°C° 0.3 mm 2 mps 724 mmHg 45%
    17:00 +34°C° 0.4 mm 2 mps 724 mmHg 48%
    18:00 +32°C° 0.4 mm 2 mps 724 mmHg 51%
    19:00 +31°C° 0.4 mm 2 mps 725 mmHg 54%
    20:00 +30°C° 0.5 mm 2 mps 725 mmHg 58%
    21:00 +30°C° 0.5 mm 2 mps 726 mmHg 63%
    22:00 +29°C° 0.5 mm 3 mps 726 mmHg 67%
    23:00 +28°C° 0.5 mm 3 mps 726 mmHg 69%

    22 February, Thursday

    Time Temperature Precipitation Wind Pressure Humidity
    00:00 +28°C° 0.5 mm 2 mps 726 mmHg 72%
    01:00 +27°C° 0.5 mm 2 mps 726 mmHg 75%
    02:00 +27°C° 0 mm 2 mps 725 mmHg 76%
    03:00 +27°C° 0 mm 2 mps 725 mmHg 78%
    04:00 +26°C° 0 mm 2 mps 725 mmHg 80%
    05:00 +26°C° 0.3 mm 2 mps 725 mmHg 81%
    06:00 +26°C° 0.3 mm 2 mps 726 mmHg 82%
    07:00 +26°C° 0.3 mm 1 mps 726 mmHg 83%
    08:00 +28°C° 0.6 mm 2 mps 727 mmHg 74%
    09:00 +30°C° 0.6 mm 2 mps 727 mmHg 64%
    10:00 +32°C° 0.6 mm 2 mps 728 mmHg 55%
    11:00 +34°C° 0.6 mm 2 mps 727 mmHg 51%
    12:00 +35°C° 0.6 mm 2 mps 727 mmHg 46%
    13:00 +36°C° 0.6 mm 2 mps 726 mmHg 42%
    14:00 +35°C° 0.2 mm 1 mps 725 mmHg 44%
    15:00 +34°C° 0.2 mm 1 mps 725 mmHg 46%
    16:00 +33°C° 0.2 mm 1 mps 724 mmHg 47%
    17:00 +32°C° 1.2 mm 1 mps 725 mmHg 50%
    18:00 +32°C° 1.2 mm 1 mps 725 mmHg 53%
    19:00 +31°C° 1.2 mm 1 mps 725 mmHg 55%
    20:00 +30°C° 0.8 mm 2 mps 726 mmHg 59%
    21:00 +29°C° 0.8 mm 2 mps 727 mmHg 62%
    22:00 +29°C° 0.8 mm 2 mps 727 mmHg 65%
    23:00 +28°C° 0.6 mm 2 mps 727 mmHg 68%

    23 February, Friday

    Time Temperature Precipitation Wind Pressure Humidity
    00:00 +28°C° 0.6 mm 1 mps 727 mmHg 70%
    01:00 +27°C° 0.6 mm 1 mps 727 mmHg 73%
    02:00 +27°C° 1.4 mm 1 mps 726 mmHg 75%
    03:00 +26°C° 1.4 mm 1 mps 726 mmHg 77%
    04:00 +26°C° 1.4 mm 1 mps 726 mmHg 79%
    05:00 +26°C° 1.8 mm 2 mps 727 mmHg 81%
    06:00 +25°C° 1.8 mm 3 mps 727 mmHg 82%
    07:00 +25°C° 1.8 mm 4 mps 728 mmHg 83%
    08:00 +26°C° 0.4 mm 4 mps 729 mmHg 79%
    09:00 +27°C° 0.4 mm 4 mps 729 mmHg 75%
    10:00 +28°C° 0.4 mm 4 mps 730 mmHg 70%
    11:00 +29°C° 0.1 mm 4 mps 729 mmHg 66%
    12:00 +30°C° 0.1 mm 3 mps 729 mmHg 62%
    13:00 +31°C° 0.1 mm 3 mps 728 mmHg 58%
    14:00 +31°C° 1.3 mm 3 mps 727 mmHg 57%
    15:00 +31°C° 1.3 mm 3 mps 727 mmHg 57%
    16:00 +32°C° 1.3 mm 2 mps 726 mmHg 56%
    17:00 +30°C° 2.1 mm 2 mps 726 mmHg 61%
    18:00 +29°C° 2.1 mm 2 mps 727 mmHg 65%
    19:00 +28°C° 2.1 mm 1 mps 727 mmHg 69%
    20:00 +28°C° 1.1 mm 1 mps 728 mmHg 70%
    21:00 +28°C° 1.1 mm 1 mps 728 mmHg 71%
    22:00 +27°C° 1.1 mm 1 mps 728 mmHg 72%
    23:00 +27°C° 0.4 mm 1 mps 728 mmHg 73%

    24 February, Saturday

    Time Temperature Precipitation Wind Pressure Humidity
    00:00 +27°C° 0.4 mm 1 mps 728 mmHg 75%
    01:00 +26°C° 0.4 mm 1 mps 728 mmHg 76%
    02:00 +26°C° 0.7 mm 1 mps 728 mmHg 78%
    03:00 +26°C° 0.7 mm 1 mps 728 mmHg 80%
    04:00 +25°C° 0.7 mm 2 mps 728 mmHg 82%
    05:00 +25°C° 0.9 mm 2 mps 728 mmHg 83%
    06:00 +25°C° 0.9 mm 2 mps 729 mmHg 84%
    07:00 +25°C° 0.9 mm 2 mps 729 mmHg 85%
    08:00 +26°C° 0.7 mm 2 mps 730 mmHg 78%
    09:00 +28°C° 0.7 mm 3 mps 730 mmHg 71%
    10:00 +29°C° 0.7 mm 3 mps 731 mmHg 65%
    11:00 +30°C° 0.7 mm 3 mps 730 mmHg 60%
    12:00 +31°C° 0.7 mm 2 mps 729 mmHg 56%
    13:00 +34°C° 0.7 mm 2 mps 729 mmHg 52%
    14:00 +34°C° 0.6 mm 2 mps 728 mmHg 51%
    15:00 +34°C° 0.6 mm 2 mps 728 mmHg 51%
    16:00 +33°C° 0.6 mm 1 mps 727 mmHg 51%
    17:00 +32°C° 0.3 mm 1 mps 727 mmHg 53%
    18:00 +31°C° 0.3 mm 1 mps 727 mmHg 56%
    19:00 +30°C° 0.3 mm 1 mps 728 mmHg 58%
    20:00 +30°C° 0 mm 1 mps 728 mmHg 60%
    21:00 +29°C° 0 mm 1 mps 728 mmHg 62%
    22:00 +27°C° 0 mm 0 mps 728 mmHg 64%
    23:00 +26°C° 0.1 mm 0 mps 728 mmHg 65%
    Show more